Showing default

OPS 4467 A, 812

Orbit data source: Space-Track

OPS 4467 A, 812 is an American payload satellite in SSO that was launched on Thu, 18 Jun 1964 UTC via a THOR SLV-2 AGENA D launch vehicle from the Air Force Western Test Range (AFWTR). Payload-class satellites include a variety of spacecraft equipped with specific instruments for various scientific and technological missions. These include communications satellites like Starlink; space stations such as the ISS; scientific satellites like the Hubble; Earth observation satellites from companies like Planet Labs, Umbra, and HawkEye 360; GPS; miniature CubeSats for education and research; and military/defense satellites.

Loading next visibility...
Identifier
812, 1964-031A
Orbit
SSO
Country
Flag of USUS
Related business
Manufacturer
RCA/East Windsor
Mission
Defense Weather
Bus & Motor
P35, Unknown motor
Mass
50 kg wet, 50 kg dry
Launch date (UTC)
1964-06-18 (61 years ago)
Launch vehicle
THOR SLV-2 AGENA D
Launch site
Air Force Western Test Range (AFWTR)
Object type
Payload
Rocket body
Debris
Shape & HBR
Cyl, 0.3 m
Radar Cross Section
0.377 m², Medium (>0.1 m² and < 1m²)

Expand to show TLE details & history
Last TLE update: 14 hours ago

TLE from 14 hours ago
0 OPS 4467 A
1 00812U 64031A   25261.15583781  .00000074  00000-0  54912-4 0  9995
2 00812  99.7848  20.2326 0006216 125.8624 234.3129 14.24494780177569
Epoch: 2025-09-18T03:44Z
TLE epoch observation values (Epoch: 2025-09-18T03:44:24.386Z)
Latitude
-0.00008°
Longitude
-33.19048°
Altitude
815.685 km
Speed
7.444 km/s
True Right ascension
01h 20m 55s
True Declination
0° 00' 00"
Sunlit
Object was in full shadow at epoch
Visualization orbit readout
Latitude
Unknown
Longitude
Unknown
Altitude
Unknown
Speed
Unknown
Apparent Right ascension
Unknown
Apparent Declination
Unknown
Sunlit
N/A
Visualization observer readout
Local Sidereal Time
10:24:34
Azimuth
Unknown
Elevation
Unknown
Doppler factor
Unknown
Orbital elements
Apogee altitude
811.866 km
Perigee altitude
802.933 km
Semi-major axis
7,185.536 km
Eccentricity
0.00062
Inclination
99.7848°
RAAN
20.2326°
Arg. of periapsis
125.8624°
True anomaly
234.25507°
Mean anomaly
234.3129°
Eccentric anomaly
234.28398°
Mean motion
3.56332 °/min
Orbital period
101.03 mins
BSTAR
0.000054912
Loading maneuver chart data...
Computing Atmospheric mass density...
Loading historical data...
Loading historical data...
Loading historical data...
Loading historical data...
Loading historical data...
Loading historical data...
Loading historical data...
Other satellites on launch #31 in the year 1964 (1964-06-18 UTC)

Documentation

Showing up to 5 results
|